Location: Horowhenua
(40.7500°S, 175.3333°E)
Time: 05:14:42
(UTC+00:00)

NPP - Pass Details

Date: 28 January 2023
Orbit: 826 x 828 km, 98.8° (Epoch: 01 April)

Event Time Altitude Azimuth Distance (km) Brightness Sun altitude
Exits shadow 13:42:33 45° 242° (WSW) 1,128 4.3 -28.8°
Drops below altitude 10° 13:46:47 10° 204° (SSW) 2,462 6.6 -28.5°
Sets 13:49:14 0° 198° (SSW) 3,403 7.6 -28.4°
